Radiation Dose at Monitoring Post of Fukushima Daini Nuclear Power Station
Date,Time,MP-1(microSv/h),MP-2(microSv/h),MP-3(microSv/h),MP-4(microSv/h),MP-5(microSv/h),MP-6(microSv/h),MP-7(microSv/h),Wind Direction,Wind Velocity(m/s),Rain
2017/02/28,00:00,0.398,0.235,0.409,0.377,0.337,0.197,0.166,north-northwest,2.9,No
2017/02/28,00:10,0.397,0.234,0.409,0.378,0.338,0.198,0.167,north-northwest,5.0,No
2017/02/28,00:20,0.397,0.236,0.408,0.378,0.337,0.198,0.167,north-northwest,5.0,No
2017/02/28,00:30,0.397,0.237,0.408,0.378,0.337,0.197,0.167,north-northwest,3.6,No
2017/02/28,00:40,0.397,0.237,0.409,0.377,0.338,0.198,0.166,north,6.2,No
2017/02/28,00:50,0.398,0.235,0.409,0.377,0.339,0.197,0.166,north-northwest,6.2,No
2017/02/28,01:00,0.398,0.235,0.410,0.377,0.336,0.198,0.167,north-northwest,6.4,No
2017/02/28,01:10,0.397,0.235,0.409,0.378,0.337,0.198,0.167,north-northwest,5.0,No
2017/02/28,01:20,0.398,0.236,0.410,0.378,0.337,0.197,0.167,north-northwest,4.1,No
2017/02/28,01:30,0.398,0.236,0.409,0.376,0.338,0.196,0.166,northwest,2.3,No
2017/02/28,01:40,0.398,0.234,0.409,0.377,0.338,0.197,0.166,north-northwest,3.9,No
2017/02/28,01:50,0.399,0.235,0.409,0.379,0.338,0.197,0.167,north,6.2,No
2017/02/28,02:00,0.399,0.235,0.408,0.377,0.337,0.197,0.166,north-northwest,6.7,No
2017/02/28,02:10,0.400,0.236,0.409,0.377,0.337,0.198,0.167,north-northwest,5.8,No
2017/02/28,02:20,0.398,0.235,0.409,0.378,0.337,0.196,0.168,north,6.4,No
2017/02/28,02:30,0.397,0.235,0.408,0.379,0.337,0.197,0.167,north,7.4,No
2017/02/28,02:40,0.400,0.236,0.407,0.378,0.338,0.198,0.167,north-northwest,6.1,No
2017/02/28,02:50,0.399,0.236,0.409,0.377,0.338,0.197,0.167,north,6.9,No
2017/02/28,03:00,0.398,0.235,0.410,0.378,0.338,0.198,0.167,north,7.3,No
2017/02/28,03:10,0.398,0.236,0.410,0.377,0.338,0.197,0.166,north,7.2,No
2017/02/28,03:20,0.398,0.237,0.408,0.378,0.338,0.197,0.167,north,6.4,No
2017/02/28,03:30,0.398,0.234,0.411,0.379,0.338,0.197,0.167,north-northwest,5.6,No
2017/02/28,03:40,0.400,0.235,0.411,0.378,0.338,0.196,0.168,north,6.4,No
2017/02/28,03:50,0.399,0.235,0.409,0.377,0.338,0.197,0.166,north,6.9,No
2017/02/28,04:00,0.399,0.238,0.410,0.378,0.338,0.197,0.167,north,7.8,No
2017/02/28,04:10,0.399,0.237,0.409,0.378,0.338,0.197,0.165,north,8.2,No
2017/02/28,04:20,0.399,0.236,0.410,0.377,0.337,0.197,0.166,north,8.1,No
2017/02/28,04:30,0.398,0.236,0.411,0.377,0.338,0.197,0.167,north,8.4,No
2017/02/28,04:40,0.400,0.236,0.410,0.377,0.338,0.197,0.167,north-northwest,7.9,No
2017/02/28,04:50,0.399,0.237,0.409,0.378,0.338,0.197,0.167,north-northwest,8.8,No
2017/02/28,05:00,0.398,0.236,0.409,0.375,0.337,0.197,0.166,north-northwest,8.6,No
2017/02/28,05:10,0.398,0.236,0.410,0.377,0.338,0.198,0.167,north-northwest,7.5,No
2017/02/28,05:20,0.400,0.236,0.410,0.377,0.336,0.197,0.167,north,8.6,No
2017/02/28,05:30,0.399,0.235,0.410,0.378,0.337,0.196,0.167,north-northwest,7.5,No
2017/02/28,05:40,0.398,0.235,0.409,0.376,0.336,0.196,0.167,north,8.1,No
2017/02/28,05:50,0.398,0.236,0.409,0.378,0.339,0.196,0.167,north-northwest,7.6,No
2017/02/28,06:00,0.397,0.235,0.409,0.376,0.336,0.196,0.168,north-northwest,8.0,No
2017/02/28,06:10,0.398,0.235,0.409,0.377,0.338,0.197,0.167,north-northwest,7.7,No
2017/02/28,06:20,0.399,0.235,0.410,0.378,0.336,0.196,0.167,north-northwest,7.3,No
2017/02/28,06:30,0.398,0.237,0.409,0.378,0.339,0.197,0.167,north,7.8,No
2017/02/28,06:40,0.399,0.238,0.409,0.377,0.338,0.197,0.167,north-northwest,7.3,No
2017/02/28,06:50,0.397,0.235,0.409,0.377,0.336,0.197,0.168,north-northwest,7.3,No
2017/02/28,07:00,0.399,0.235,0.409,0.378,0.337,0.195,0.167,north-northwest,6.5,No
2017/02/28,07:10,0.400,0.235,0.411,0.379,0.336,0.198,0.168,north-northwest,6.6,No
2017/02/28,07:20,0.397,0.234,0.411,0.377,0.338,0.198,0.166,north,7.3,No
2017/02/28,07:30,0.399,0.235,0.408,0.376,0.337,0.197,0.168,north,6.4,No
2017/02/28,07:40,0.399,0.235,0.410,0.376,0.338,0.197,0.167,north,2.9,No
2017/02/28,07:50,0.398,0.234,0.410,0.376,0.337,0.197,0.167,north,5.5,No
2017/02/28,08:00,0.398,0.235,0.409,0.378,0.336,0.197,0.167,north,4.9,No
2017/02/28,08:10,0.398,0.236,0.408,0.376,0.337,0.198,0.167,north,5.8,No
2017/02/28,08:20,0.399,0.236,0.408,0.377,0.337,0.197,0.167,north,6.3,No
2017/02/28,08:30,0.399,0.235,0.411,0.377,0.338,0.196,0.167,north-northwest,3.8,No
2017/02/28,08:40,0.397,0.235,0.410,0.376,0.339,0.197,0.167,north,6.1,No
2017/02/28,08:50,0.398,0.235,0.409,0.377,0.340,0.197,0.166,north,5.1,No
2017/02/28,09:00,0.398,0.235,0.409,0.376,0.339,0.195,0.167,north,5.3,No
2017/02/28,09:10,0.397,0.236,0.410,0.376,0.337,0.196,0.167,north,4.5,No
2017/02/28,09:20,0.398,0.235,0.409,0.377,0.337,0.196,0.167,north,3.4,No
2017/02/28,09:30,0.396,0.235,0.409,0.376,0.338,0.196,0.167,north,4.5,No
2017/02/28,09:40,0.396,0.235,0.410,0.376,0.338,0.197,0.166,north-northeast,4.4,No
2017/02/28,09:50,0.397,0.236,0.410,0.375,0.338,0.197,0.167,north,4.2,No
2017/02/28,10:00,0.396,0.236,0.407,0.375,0.339,0.197,0.166,north-northeast,5.3,No
2017/02/28,10:10,0.396,0.235,0.407,0.378,0.337,0.195,0.167,north-northeast,5.5,No
2017/02/28,10:20,0.398,0.235,0.408,0.374,0.336,0.195,0.168,north-northeast,6.3,No
2017/02/28,10:30,0.397,0.237,0.409,0.378,0.338,0.195,0.167,north,3.9,No
2017/02/28,10:40,0.394,0.236,0.408,0.376,0.337,0.195,0.165,north-northeast,4.8,No
2017/02/28,10:50,0.397,0.235,0.408,0.377,0.341,0.195,0.164,north-northeast,5.0,No
2017/02/28,11:00,0.397,0.235,0.407,0.379,0.338,0.194,0.166,north-northeast,5.3,No
2017/02/28,11:10,0.396,0.235,0.410,0.376,0.336,0.194,0.167,north-northeast,6.2,No
2017/02/28,11:20,0.397,0.236,0.409,0.378,0.339,0.195,0.167,north-northeast,6.8,No
2017/02/28,11:30,0.396,0.235,0.407,0.377,0.338,0.197,0.167,north-northeast,4.9,No
2017/02/28,11:40,0.395,0.235,0.409,0.377,0.338,0.196,0.167,north-northeast,6.7,No
2017/02/28,11:50,0.396,0.236,0.408,0.377,0.340,0.197,0.167,north-northeast,6.1,No
2017/02/28,12:00,0.398,0.236,0.407,0.377,0.337,0.196,0.166,north-northeast,6.2,No
2017/02/28,12:10,0.397,0.236,0.410,0.376,0.338,0.196,0.167,north-northeast,6.5,No
2017/02/28,12:20,0.396,0.235,0.406,0.378,0.338,0.196,0.167,north-northeast,6.3,No
2017/02/28,12:30,0.396,0.235,0.408,0.375,0.337,0.198,0.167,northeast,4.6,No
2017/02/28,12:40,0.396,0.237,0.408,0.376,0.338,0.196,0.167,northeast,3.7,No
2017/02/28,12:50,0.399,0.236,0.408,0.378,0.338,0.196,0.167,northeast,5.2,No
2017/02/28,13:00,0.398,0.236,0.407,0.377,0.337,0.197,0.167,northeast,4.5,No
2017/02/28,13:10,0.397,0.235,0.410,0.379,0.339,0.196,0.166,northeast,4.6,No
2017/02/28,13:20,0.397,0.236,0.408,0.376,0.338,0.195,0.166,northeast,5.0,No
2017/02/28,13:30,0.396,0.235,0.408,0.377,0.337,0.198,0.167,northeast,4.6,No
2017/02/28,13:40,0.394,0.236,0.409,0.379,0.340,0.195,0.166,east-northeast,3.9,No
2017/02/28,13:50,0.387,0.235,0.409,0.377,0.339,0.194,0.167,northeast,3.6,No
2017/02/28,14:00,0.381,0.236,0.407,0.379,0.337,0.195,0.167,northeast,4.5,No
2017/02/28,14:10,0.378,0.236,0.408,0.377,0.336,0.195,0.166,northeast,4.8,No
2017/02/28,14:20,0.387,0.235,0.407,0.377,0.339,0.195,0.166,northeast,5.2,No
2017/02/28,14:30,0.403,0.237,0.407,0.379,0.338,0.195,0.168,north-northeast,4.6,No
2017/02/28,14:40,-,0.235,0.409,0.376,0.339,0.195,0.167,northeast,5.6,No
2017/02/28,14:50,0.404,0.235,0.407,0.377,0.338,0.195,0.167,northeast,4.9,No
2017/02/28,15:00,0.403,0.236,0.409,0.378,0.336,0.198,0.167,northeast,4.7,No
2017/02/28,15:10,0.404,0.237,0.408,0.376,0.339,0.196,0.167,northeast,4.3,No
2017/02/28,15:20,0.400,0.235,0.407,0.377,0.339,0.197,0.167,northeast,4.6,No
2017/02/28,15:30,0.399,0.234,0.410,0.378,0.336,0.198,0.167,northeast,4.9,No
2017/02/28,15:40,0.401,0.234,0.409,0.377,0.340,0.196,0.167,northeast,4.1,No
2017/02/28,15:50,0.400,0.228,0.408,0.379,0.339,0.196,0.167,northeast,4.3,No
2017/02/28,16:00,0.397,0.223,0.410,0.377,0.338,0.197,0.167,northeast,3.9,No
2017/02/28,16:10,0.398,0.222,0.408,0.377,0.338,0.196,0.167,northeast,4.4,No
2017/02/28,16:20,0.399,0.230,0.409,0.378,0.338,0.196,0.167,northeast,3.7,No
2017/02/28,16:30,0.398,0.234,0.409,0.377,0.338,0.197,0.166,northeast,4.4,No
2017/02/28,16:40,0.398,0.237,0.408,0.378,0.337,0.196,0.167,northeast,3.9,No
2017/02/28,16:50,0.398,0.237,0.409,0.378,0.339,0.197,0.167,northeast,4.2,No
2017/02/28,17:00,0.398,0.239,0.408,0.379,0.337,0.197,0.168,north-northeast,3.6,No
2017/02/28,17:10,0.398,0.237,0.410,0.376,0.337,0.197,0.166,north-northeast,3.3,No
2017/02/28,17:20,0.396,0.238,0.409,0.377,0.337,0.196,0.166,north-northeast,3.9,No
2017/02/28,17:30,0.397,0.238,0.407,0.377,0.338,0.197,0.168,northeast,3.5,No
2017/02/28,17:40,0.398,0.237,0.409,0.377,0.337,0.196,0.167,northeast,3.4,No
2017/02/28,17:50,0.397,0.237,0.409,0.377,0.337,0.196,0.166,northeast,4.1,No
2017/02/28,18:00,0.398,0.236,0.408,0.378,0.336,0.196,0.167,northeast,4.2,No
2017/02/28,18:10,0.398,0.236,0.411,0.376,0.338,0.197,0.166,northeast,3.7,No
2017/02/28,18:20,0.397,0.235,0.410,0.375,0.338,0.196,0.167,northeast,3.7,No
2017/02/28,18:30,0.398,0.236,0.407,0.377,0.337,0.197,0.167,northeast,3.4,No
2017/02/28,18:40,0.398,0.236,0.409,0.379,0.338,0.197,0.167,east-northeast,3.1,No
2017/02/28,18:50,0.398,0.236,0.411,0.376,0.338,0.197,0.166,northeast,2.5,No
2017/02/28,19:00,0.399,0.236,0.410,0.376,0.336,0.196,0.166,northeast,2.5,No
2017/02/28,19:10,0.397,0.235,0.408,0.377,0.339,0.196,0.166,east-northeast,2.2,No
2017/02/28,19:20,0.397,0.236,0.409,0.378,0.337,0.196,0.167,northeast,2.2,No
2017/02/28,19:30,0.400,0.237,0.410,0.378,0.337,0.196,0.167,east-northeast,2.3,No
2017/02/28,19:40,0.397,0.236,0.408,0.378,0.337,0.196,0.166,northeast,3.3,No
2017/02/28,19:50,0.399,0.235,0.409,0.377,0.337,0.197,0.166,northeast,1.3,No
2017/02/28,20:00,0.396,0.237,0.410,0.376,0.338,0.196,0.166,-,CALM,No
2017/02/28,20:10,0.398,0.235,0.410,0.378,0.339,0.197,0.168,north-northwest,1.9,No
2017/02/28,20:20,0.399,0.235,0.409,0.378,0.338,0.197,0.167,north-northeast,0.6,No
2017/02/28,20:30,0.399,0.236,0.408,0.377,0.338,0.196,0.166,northeast,0.8,No
2017/02/28,20:40,0.396,0.237,0.411,0.376,0.338,0.196,0.167,northwest,1.2,No
2017/02/28,20:50,0.399,0.236,0.409,0.378,0.339,0.199,0.167,north,1.5,No
2017/02/28,21:00,0.397,0.236,0.408,0.376,0.336,0.196,0.167,north,1.6,No
2017/02/28,21:10,0.397,0.236,0.410,0.376,0.339,0.197,0.167,north-northwest,2.1,No
2017/02/28,21:20,0.398,0.236,0.410,0.378,0.338,0.197,0.167,north,1.9,No
2017/02/28,21:30,0.398,0.237,0.409,0.378,0.337,0.198,0.167,northwest,2.2,No
2017/02/28,21:40,0.396,0.236,0.408,0.377,0.338,0.197,0.167,north,1.5,No
2017/02/28,21:50,0.396,0.237,0.409,0.377,0.338,0.197,0.166,north,1.5,No
2017/02/28,22:00,0.398,0.235,0.409,0.380,0.337,0.197,0.167,north-northwest,1.5,No
2017/02/28,22:10,0.399,0.236,0.408,0.377,0.337,0.199,0.166,northwest,1.6,No
2017/02/28,22:20,0.397,0.236,0.409,0.377,0.337,0.196,0.168,west-northwest,1.1,No
2017/02/28,22:30,0.397,0.235,0.409,0.377,0.338,0.197,0.167,west-northwest,1.9,No
2017/02/28,22:40,0.397,0.235,0.409,0.377,0.338,0.197,0.166,west,1.7,No
2017/02/28,22:50,0.399,0.237,0.408,0.377,0.337,0.197,0.167,northwest,1.3,No
2017/02/28,23:00,0.398,0.236,0.411,0.377,0.339,0.198,0.167,northwest,0.9,No
2017/02/28,23:10,0.396,0.236,0.409,0.377,0.338,0.197,0.167,north,1.4,No
2017/02/28,23:20,0.398,0.236,0.407,0.377,0.338,0.198,0.167,north,1.3,No
2017/02/28,23:30,0.399,0.236,0.408,0.379,0.338,0.197,0.167,north,1.4,No
2017/02/28,23:40,0.399,0.237,0.409,0.377,0.338,0.198,0.167,north-northwest,1.1,No
2017/02/28,23:50,0.398,0.237,0.411,0.380,0.337,0.198,0.167,north,1.5,No
